Location: Poughquag
(41.6090°N, 73.6820°W)
Time: 14:49:10
(UTC-04:00)

Altair - Pass Details

Date: 05 June 2020
Orbit: 1501 x 1683 km, 47.2° (Epoch: 05 July)

Event Time Altitude Azimuth Distance (km) Brightness Sun altitude
Rises 00:44:02 0° 279° (W) 4,873 10.3 -25.8°
Reaches altitude 10° 00:47:12 10° 283° (WNW) 3,904 9.8 -25.8°
Maximum altitude 00:57:13 64° 4° (N) 1,825 8.0 -25.8°
Drops below altitude 10° 01:07:20 10° 86° (E) 3,941 9.7 -25.7°
Sets 01:10:33 0° 89° (E) 4,920 10.2 -25.7°
